This demonstration page uses our WeatherBlox Daily Observations layout. Learn more.

Left ArrowRight Arrow

Hourly Observations for April 7, 2021

Temp ( °F °C ) Dew Point ( °F °C ) Humidity (%) Winds ( mph kmh ) Pressure ( in mb ) Visibility ( mi km ) Precip ( " mm )
12:53 am 00:53 Mostly Cloudy 56 13.3 47 8.3 72 72 Calm 30.02 1017 10 16 0.00 0.00
1:53 am 01:53 Cloudy 56 13.3 47 8.3 72 72 Calm 30.02 1017 10 16 0.00 0.00
2:53 am 02:53 Clear 53 11.7 46 7.8 77 77 Calm 30.02 1017 10 16 0.00 0.00
3:53 am 03:53 Clear 51 10.6 46 7.8 83 83 Calm 30.04 1017 10 16 0.00 0.00
4:53 am 04:53 Clear 48 8.9 44 6.7 86 86 NNE 3 6 30.04 1017 10 16 0.00 0.00
5:53 am 05:53 Clear 48 8.9 44 6.7 86 86 Calm 30.06 1018 10 16 0.00 0.00
6:53 am 06:53 Sunny 47 8.3 43 6.1 86 86 Calm 30.07 1018 10 16 0.00 0.00
7:53 am 07:53 Sunny 51 10.6 45 7.2 80 80 Calm 30.09 1019 10 16 0.00 0.00
8:53 am 08:53 Sunny 55 12.8 45 7.2 69 69 S 3 6 30.09 1019 10 16 0.00 0.00
9:53 am 09:53 Sunny 59 15 45 7.2 60 60 S 3 6 30.09 1019 10 16 0.00 0.00
10:53 am 10:53 Sunny 63 17.2 45 7.2 52 52 Calm 30.10 1019 10 16 0.00 0.00
11:53 am 11:53 Sunny 66 18.9 46 7.8 49 49 SE 3 6 30.08 1019 10 16 0.00 0.00
12:53 pm 12:53 Sunny 68 20 45 7.2 44 44 WSW 6 9 30.07 1018 10 16 0.00 0.00
1:53 pm 13:53 Sunny 70 21.1 42 5.6 37 37 S 10 17 30.05 1018 10 16 0.00 0.00
2:53 pm 14:53 Sunny 71 21.7 37 2.8 29 29 SE 10 17 30.04 1017 10 16 0.00 0.00
3:53 pm 15:53 Sunny 72 22.2 39 3.9 30 30 S 8 13 30.02 1017 10 16 0.00 0.00
4:53 pm 16:53 Sunny 72 22.2 42 5.6 34 34 S 10 17 30.00 1016 10 16 0.00 0.00
5:53 pm 17:53 Sunny 72 22.2 41 5 33 33 S 12 19 29.99 1016 10 16 0.00 0.00
6:53 pm 18:53 Sunny 70 21.1 41 5 35 35 S 13 20 29.99 1016 10 16 0.00 0.00
7:53 pm 19:53 Clear 65 18.3 43 6.1 45 45 S 7 11 30.01 1016 10 16 0.00 0.00
8:53 pm 20:53 Clear 63 17.2 44 6.7 50 50 S 3 6 30.03 1017 10 16 0.00 0.00
9:53 pm 21:53 Clear 59 15 45 7.2 60 60 NE 3 6 30.05 1018 10 16 0.00 0.00
10:53 pm 22:53 Clear 53 11.7 45 7.2 74 74 NE 3 6 30.06 1018 10 16 0.00 0.00
11:53 pm 23:53 Clear 55 12.8 44 6.7 67 67 Calm 30.07 1018 10 16 0.00 0.00

Powered by AerisWeather